User: anonymous   Login
Location: Nelson
(41.2830°S, 173.2830°E)
Time: 07:42:11
(UTC+13:00)
Language:

IRAS Rocket - Orbit

View from above orbital plane
View from above orbital plane
View from above satellite
View from above satellite

Ground track
Ground track

The orbit data is extracted from the following two-line orbital elements,

1 13778U 83004B   19081.82747260  .00000073  00000-0  73297-4 0  9998
2 13778 100.0446 150.7046 0020472 240.5086 119.4038 14.08997954857660
Epoch (UTC): 22 March 2019 19:51:33
Eccentricity: 0.0020472
inclination: 100.0446°
perigee height: 848 km
apogee height: 877 km
right ascension of ascending node: 150.7046°
argument of perigee: 240.5086°
revolutions per day: 14.08997954
mean anomaly at epoch: 119.4038°
orbit number at epoch: 85766

The dashed part of the orbit path shows where the satellite is in the earth's shadow,  

DLR